[[{"header":{"parameterUnit":"m.s-1","parameterCategory":1,"la1":30.2991,"la2":30.254,"lo1":-89.0895,"lo2":-89.0444,"dy":0.0017,"dx":0.0017,"nx":28,"ny":28,"refTime":"2025-12-27T03:00:00:Z","depth":0,"parameterNumber":2,"parameterNumberName":"U-component_of_WINDS"},"data":[0,0,0,0,0,0,0,0,0,0,0,0,0,0,0,0,0,0,0,0,0,0,0,0,0,0,0,0,0,0,0,0,0,0,0,0,0,0,0,0,0,0,0,0,0,0,0,0,0,0,0,0,0,0,0,0,0,0,0.3049,0.305,0,0.3116,0.3117,0.3118,0.3134,0.3134,0.3133,0.3133,0.3202,0.3204,0.3206,0,0,0,0,0,0,0,0,0,0,0,0,0,0.2936,0.2938,0.3049,0.305,0.3051,0.3116,0.3117,0.3118,0.3134,0.3134,0.3133,0.3133,0.3201,0.3203,0.3206,0,0,0,0,0,0,0,0,0,0,0,0,0,0.2992,0.2939,0.3049,0.3067,0.3069,0.3116,0.3117,0.3118,0.3134,0.3134,0.3133,0.3133,0.32,0.3203,0.3207,0.324,0,0,0.3217,0.3218,0,0,0,0,0,0,0,0,0.2989,0.2996,0.3064,0.3066,0.3069,0.3116,0.3102,0.3159,0.3135,0.311,0.3133,0.3132,0.3174,0.3179,0.3193,0.3243,0.3246,0.3217,0.3219,0.322,0.3221,0,0,0,0,0,0,0,0.2985,0.2994,0.3076,0.3065,0.3068,0.3072,0.3079,0.3113,0.3145,0.3112,0.3113,0.3121,0.3175,0.319,0.3195,0.3247,0.3217,0.322,0.3222,0.3223,0.3329,0.3329,0,0,0,0,0,0,0.2978,0.299,0.3074,0.3078,0.3026,0.3074,0.3082,0.3102,0.3144,0.315,0.3121,0.3121,0.3184,0.3191,0.3197,0.324,0.322,0.3224,0.3226,0.3328,0.3329,0.333,0,0,0,0,0,0,0.2976,0.2985,0.3071,0.3034,0.3046,0.3077,0.3098,0.3103,0.3118,0.3151,0.3157,0.3131,0.3184,0.3193,0.3229,0.3243,0.3225,0.3228,0.3327,0.3328,0.3329,0.3325,0,0,0,0,0,0,0.2972,0.2985,0.2998,0.3035,0.3048,0.3102,0.3099,0.3105,0.3124,0.3125,0.3162,0.3167,0.3184,0.3224,0.3233,0.3247,0.3231,0.3326,0.3327,0.3329,0.3324,0.3326,0.3327,0,0,0,0,0,0.2968,0.2994,0.2998,0.3008,0.3065,0.3103,0.311,0.3129,0.3125,0.3138,0.316,0.3166,0.3239,0.3228,0.3238,0.3253,0.3325,0.3327,0.3329,0.3323,0.3325,0.3327,0,0,0,0,0,0,0.2957,0.2999,0.3004,0.3042,0.3069,0.3105,0.3123,0.3131,0.3159,0.3158,0.3181,0.3189,0.3224,0.3242,0.3229,0.3288,0.3282,0.3286,0.3275,0.3277,0.3279,0.3274,0.3234,0,0,0,0,0,0.2959,0.2987,0.3021,0.3052,0.3065,0.3091,0.3109,0.3121,0.3149,0.3161,0.3185,0.3212,0.3241,0.326,0.3289,0.3326,0.3335,0.3342,0.3343,0.3344,0.3348,0.3369,0.3373,0.3335,0.3335,0.3335,0,0,0.2964,0.299,0.3006,0.305,0.3072,0.31,0.3101,0.313,0.3151,0.3165,0.3202,0.322,0.3252,0.3289,0.3307,0.3305,0.336,0.3347,0.3347,0.335,0.3371,0.3375,0.3378,0.3337,0.3336,0.3336,0,0,0.2987,0.3009,0.3037,0.3059,0.3092,0.3109,0.3116,0.3151,0.3164,0.3201,0.3212,0.3237,0.3287,0.3309,0.3327,0.3358,0.3365,0.3367,0.3376,0.3397,0.34,0.3402,0.3414,0.3418,0.337,0.337,0.337,0,0.2988,0.3031,0.305,0.3079,0.3099,0.3112,0.3141,0.3161,0.3202,0.3215,0.3212,0.3275,0.3297,0.334,0.3348,0.3362,0.337,0.3363,0.3397,0.34,0.3403,0.3415,0.3419,0.337,0.337,0.337,0.337,0,0.3031,0.306,0.3079,0.3118,0.314,0.3168,0.3192,0.3211,0.3221,0.3239,0.3277,0.3304,0.3338,0.3349,0.336,0.3394,0.3392,0.3393,0.3388,0.3407,0.3418,0.3422,0.337,0.337,0.337,0.337,0,0,0.3049,0.3099,0.3105,0.3124,0.3161,0.3184,0.3213,0.3247,0.3264,0.3291,0.3316,0.3358,0.3359,0.338,0.3392,0.3411,0.3434,0.341,0.3411,0.3414,0.3474,0.3474,0.3478,0.3438,0.3439,0.344,0.3472,0,0.3077,0.313,0.3148,0.3192,0.322,0.3233,0.3259,0.3284,0.3302,0.3328,0.3347,0.3376,0.3375,0.3388,0.3406,0.3427,0.3446,0.3425,0.3463,0.3464,0.3455,0.3484,0.3484,0.3512,0.3476,0.3477,0.3477,0,0.3117,0.3145,0.3192,0.3226,0.3239,0.3261,0.3294,0.3318,0.3348,0.3359,0.3382,0.3393,0.3424,0.3417,0.346,0.3445,0.3462,0.3474,0.3476,0.3481,0.3472,0.3491,0.3522,0.3526,0.3484,0.3484,0.3483,0,0.3127,0.3176,0.3211,0.3226,0.3267,0.3282,0.33,0.3329,0.3348,0.3376,0.3389,0.342,0.3438,0.3462,0.3482,0.3474,0.3523,0.3518,0.3534,0.3534,0.3545,0.3544,0.358,0.3554,0.3554,0.3554,0.3553,0,0.3156,0.3185,0.3216,0.3237,0.3269,0.329,0.3321,0.3339,0.3365,0.339,0.3402,0.3426,0.345,0.3476,0.3492,0.3526,0.3533,0.3544,0.3548,0.3543,0.3542,0.3555,0.3554,0.3555,0.3554,0.3554,0.3554,0,0.3173,0.3195,0.3233,0.3269,0.3278,0.33,0.3331,0.3352,0.3369,0.3401,0.341,0.3438,0.3469,0.3491,0.3532,0.3542,0.3579,0.3582,0.3569,0.3572,0.3587,0.3586,0.3633,0.3641,0.3609,0.3609,0.3609,0,0.3191,0.3213,0.3251,0.3268,0.3286,0.3315,0.3334,0.3355,0.3375,0.3411,0.3428,0.346,0.3488,0.3538,0.3562,0.3593,0.3597,0.3612,0.3602,0.3597,0.3599,0.3597,0.36,0.3614,0.3614,0.3614,0.3614,0,0.322,0.323,0.3258,0.329,0.3314,0.334,0.3366,0.338,0.3405,0.3427,0.346,0.3481,0.3523,0.3555,0.3588,0.3607,0.3615,0.3617,0.3623,0.3619,0.3611,0.3616,0.3574,0.3616,0.3616,0.3616,0.3616,0.3616,0.3239,0.3259,0.3289,0.332,0.3342,0.3366,0.3388,0.3408,0.3436,0.3472,0.3482,0.3517,0.3545,0.3591,0.361,0.3637,0.3636,0.3644,0.3646,0.3648,0.3648,0.3605,0.3643,0.3643,0.3643,0.3643,0.3643,0,0.327,0.329,0.3318,0.3354,0.3379,0.3384,0.3413,0.3433,0.3464,0.349,0.3517,0.3554,0.3586,0.3612,0.3644,0.3661,0.3666,0.3669,0.3669,0.3673,0.3647,0.3639,0.3665,0.3665,0.3665,0.3665,0.3665,0.3665,0.3289,0.3324,0.3337,0.3384,0.3403,0.3437,0.3453,0.3476,0.3497,0.3539,0.3565,0.3582,0.3608,0.3643,0.3672,0.3679,0.3691,0.3693,0.3701,0.3677,0.3674,0.3672,0.3665,0.3695,0.3695,0.3724,0.3725,0.3725]},{"header":{"parameterUnit":"m.s-1","parameterCategory":1,"la1":30.2991,"la2":30.254,"lo1":-89.0895,"lo2":-89.0444,"dy":0.0017,"dx":0.0017,"nx":28,"ny":28,"refTime":"2025-12-27T03:00:00:Z","depth":0,"parameterNumber":3,"parameterNumberName":"V-component_of_WINDS"},"data":[0,0,0,0,0,0,0,0,0,0,0,0,0,0,0,0,0,0,0,0,0,0,0,0,0,0,0,0,0,0,0,0,0,0,0,0,0,0,0,0,0,0,0,0,0,0,0,0,0,0,0,0,0,0,0,0,0,0,2.3065,2.3064,0,2.2978,2.2977,2.2976,2.2924,2.2924,2.2924,2.2924,2.2828,2.2826,2.2824,0,0,0,0,0,0,0,0,0,0,0,0,0,2.318,2.3178,2.3065,2.3064,2.3063,2.2978,2.2977,2.2976,2.2924,2.2924,2.2924,2.2923,2.2829,2.2826,2.2824,0,0,0,0,0,0,0,0,0,0,0,0,0,2.3115,2.3177,2.3065,2.3027,2.3023,2.2979,2.2977,2.2976,2.2924,2.2924,2.2924,2.2923,2.283,2.2827,2.2823,2.2808,0,0,2.2813,2.2811,0,0,0,0,0,0,0,0,2.3119,2.3111,2.3034,2.303,2.3025,2.2962,2.2983,2.2919,2.2924,2.2962,2.2924,2.2923,2.2873,2.2866,2.285,2.2804,2.28,2.2812,2.281,2.2809,2.2808,0,0,0,0,0,0,0,2.3123,2.3114,2.3031,2.3033,2.3027,2.3012,2.3003,2.297,2.292,2.2958,2.2954,2.2945,2.287,2.2853,2.2847,2.2799,2.2812,2.2809,2.2807,2.2806,2.2735,2.2735,0,0,0,0,0,0,2.3135,2.3118,2.3033,2.3028,2.3072,2.301,2.3,2.2982,2.292,2.291,2.2945,2.2943,2.286,2.2851,2.2844,2.2822,2.2809,2.2805,2.2803,2.2734,2.2735,2.2735,0,0,0,0,0,0,2.3138,2.3128,2.3037,2.3072,2.3059,2.3009,2.299,2.2981,2.2964,2.2911,2.2901,2.2938,2.2859,2.2849,2.2818,2.2818,2.2804,2.2801,2.2734,2.2735,2.2735,2.2779,0,0,0,0,0,0,2.3141,2.3129,2.3125,2.3073,2.3058,2.3015,2.299,2.2979,2.2959,2.2955,2.2901,2.2892,2.2858,2.2823,2.2814,2.2813,2.2798,2.2734,2.2734,2.2735,2.2777,2.278,2.2783,0,0,0,0,0,2.3145,2.3139,2.3125,2.3115,2.3052,2.3015,2.3006,2.2969,2.2959,2.2953,2.2919,2.2893,2.2819,2.2821,2.281,2.2808,2.2734,2.2734,2.2735,2.2776,2.278,2.2783,0,0,0,0,0,0,2.3191,2.3132,2.3115,2.3092,2.3059,2.3006,2.2998,2.2975,2.2942,2.294,2.2893,2.2881,2.2855,2.2828,2.283,2.2789,2.2774,2.2772,2.2808,2.2812,2.2815,2.2822,2.2795,0,0,0,0,0,2.3198,2.3176,2.3124,2.3109,2.3094,2.3049,2.3031,2.3006,2.2969,2.2954,2.2917,2.288,2.2848,2.2828,2.2796,2.2773,2.2759,2.2765,2.2769,2.2772,2.2771,2.2755,2.2757,2.2736,2.2736,2.2736,0,0,2.3213,2.3178,2.3166,2.3117,2.3089,2.3064,2.3037,2.3012,2.2993,2.2949,2.2919,2.289,2.2846,2.2818,2.2804,2.2795,2.2773,2.2772,2.2775,2.2772,2.2756,2.2758,2.276,2.2737,2.2737,2.2737,0,0,2.3228,2.32,2.3184,2.3156,2.3114,2.3084,2.308,2.303,2.301,2.2979,2.2946,2.2921,2.2867,2.2837,2.2815,2.2818,2.2793,2.2808,2.2825,2.281,2.2812,2.2813,2.2814,2.2815,2.2807,2.2808,2.2808,0,2.3252,2.3216,2.3178,2.3156,2.3135,2.3096,2.3078,2.3052,2.3,2.2986,2.2976,2.2908,2.2876,2.2841,2.2841,2.2825,2.2817,2.2814,2.2815,2.2816,2.2817,2.2816,2.2817,2.281,2.2809,2.2809,2.2809,0,2.3246,2.3222,2.3213,2.3167,2.3145,2.3125,2.3082,2.3064,2.304,2.301,2.2978,2.2937,2.2896,2.2886,2.2861,2.2846,2.2842,2.2825,2.2808,2.2821,2.282,2.282,2.2813,2.2812,2.2811,2.2811,0,0,2.3288,2.3221,2.3219,2.3197,2.3147,2.3126,2.3103,2.3065,2.305,2.3015,2.2994,2.2949,2.2933,2.2908,2.2879,2.2866,2.2871,2.285,2.2848,2.2855,2.2851,2.2865,2.2865,2.2854,2.2854,2.2853,2.2854,0,2.3296,2.3256,2.3221,2.3193,2.3169,2.3131,2.3111,2.3077,2.3048,2.3022,2.2989,2.2958,2.2939,2.2923,2.2909,2.2873,2.2869,2.2873,2.2832,2.2831,2.2845,2.2865,2.2879,2.2882,2.2854,2.2854,2.2854,0,2.33,2.3269,2.3239,2.3191,2.318,2.3163,2.3124,2.31,2.306,2.304,2.3012,2.2982,2.2954,2.294,2.29,2.2903,2.2884,2.2864,2.2863,2.2858,2.2844,2.286,2.2882,2.2883,2.2853,2.2853,2.2853,0,2.3333,2.3284,2.326,2.3242,2.3185,2.3174,2.315,2.3109,2.3088,2.3054,2.3039,2.3001,2.298,2.2951,2.2911,2.2904,2.2874,2.2857,2.2855,2.2856,2.2851,2.2852,2.2871,2.2839,2.2839,2.2839,2.2839,0,2.3346,2.3329,2.3274,2.3259,2.3238,2.3197,2.3177,2.3149,2.3113,2.309,2.3054,2.3033,2.2982,2.2954,2.2922,2.2893,2.2884,2.2865,2.2857,2.2869,2.2871,2.2856,2.2854,2.2839,2.2839,2.2839,2.2839,0,2.338,2.3343,2.3314,2.3263,2.325,2.3237,2.3192,2.3175,2.3144,2.3115,2.3106,2.3057,2.3022,2.298,2.293,2.2909,2.2883,2.287,2.2898,2.2893,2.2893,2.2894,2.2903,2.2902,2.2871,2.2872,2.2872,0,2.3391,2.3377,2.3325,2.3309,2.3286,2.3259,2.3238,2.3196,2.3175,2.3128,2.3116,2.3079,2.3047,2.2992,2.2951,2.2913,2.2899,2.2905,2.2893,2.2905,2.2899,2.29,2.2898,2.2908,2.2908,2.2909,2.2909,0,2.3414,2.3396,2.3368,2.3333,2.3309,2.3279,2.3248,2.3235,2.3186,2.3164,2.3129,2.3105,2.3055,2.3018,2.2975,2.2946,2.2919,2.2913,2.2911,2.2923,2.2939,2.293,2.2906,2.2913,2.2913,2.2913,2.2912,2.2912,2.3436,2.3422,2.3384,2.3353,2.3325,2.3297,2.3278,2.3245,2.3216,2.3174,2.315,2.3116,2.3074,2.3013,2.2986,2.2957,2.2947,2.2944,2.2943,2.2943,2.2946,2.2944,2.2949,2.2949,2.2948,2.2948,2.2948,0,2.3457,2.3431,2.3403,2.3361,2.3336,2.3315,2.3278,2.3259,2.323,2.3194,2.3164,2.3123,2.3087,2.3042,2.3002,2.2988,2.2974,2.2978,2.2979,2.2973,2.2957,2.2964,2.299,2.299,2.299,2.299,2.299,2.299,2.3465,2.3441,2.3418,2.3378,2.3351,2.3319,2.33,2.3272,2.3243,2.32,2.3171,2.3143,2.3103,2.306,2.3025,2.3012,2.2999,2.3007,2.2991,2.2978,2.2974,2.2971,2.2976,2.3005,2.3005,2.3009,2.3009,2.3009]}]]